Home > Weather > Völklingen > Past weeks

Flag for Germany Past Weather in Völklingen, Saarland, Germany — Yesterday and Last 2 Weeks

Now
54 °F

Fog.


Feels Like: 54 °F
Forecast: 50 / 66 °F
Wind: 2 mph from North

Location: Saarbruecken / Ensheim

Current Time: Jun 26, 2016 at 8:31:20 AM

Latest Report: Jun 26, 2016 at 7:50 AM


Visibility: 1 mi

Pressure: 30.09 "Hg

Humidity: 100%

Dew Point: 54 °F

Location of VölklingenLocation

Past Weather in Völklingen — Graph

°F

Völklingen Temperature Yesterday

Maximum temperature yesterday: 70 °F (at 12:20 AM)
Minimum temperature yesterday: 52 °F (at 11:50 PM)
Average temperature yesterday: 64 °F

High & Low Weather Summary for the Past Weeks

 TemperatureHumidityPressure
High90 °F (Jun 23, 3:50 PM)100% (Jun 14, 5:20 AM)30.27 "Hg (Jun 14, 5:20 AM)
Low45 °F (Jun 20, 4:20 AM)41% (Jun 23, 4:20 PM)29.53 "Hg (Jun 15, 5:20 AM)
Average62 °F83%29.93 "Hg
* Reported Jun 11 7:20 AM — Jun 26 7:20 AM, Völklingen, Weather by CustomWeather, © 2016

Note: Actual official high and low records may vary slightly from our data, if they occured in-between our weather recording intervals... More about our weather records

Advertising

Völklingen Weather History for the Previous 24 Hours

Scroll right to see more
 ConditionsComfort  
Time TempWeatherWind HumidityBarometerVisibility
7:20 AM
Sun, Jun 26
54 °FFog.1 mph94%30.09 "Hg0 mi
6:50 AM52 °FFog.1 mph100%30.09 "Hg0 mi
6:20 AM52 °FFog.1 mph94%30.09 "Hg0 mi
5:50 AM52 °FFog.2 mph94%30.07 "Hg0 mi
5:20 AM52 °FLight fog.1 mph94%30.07 "Hg5 mi
4:50 AM54 °FFog.1 mph94%30.07 "Hg5 mi
4:20 AM54 °FPassing clouds.5 mph94%30.07 "Hg6 mi
3:50 AM54 °FClear.3 mph100%30.07 "Hg6 mi
3:20 AM55 °FPassing clouds.1 mph94%30.07 "Hg6 mi
2:50 AM55 °FPartly cloudy.3 mph94%30.07 "HgN/A
2:20 AM55 °FPassing clouds.5 mph100%30.09 "Hg4 mi
1:50 AM55 °FPassing clouds.3 mph94%30.09 "Hg4 mi
1:20 AM54 °FClear.1 mph94%30.09 "Hg10 mi
12:50 AM54 °FClear.2 mph94%30.09 "Hg10 mi
12:20 AM52 °FClear.2 mph94%30.09 "Hg10 mi
11:50 PM
Sat, Jun 25
52 °FClear.2 mph94%30.09 "Hg10 mi
11:20 PM54 °FClear.3 mph88%30.09 "Hg10 mi
10:50 PM54 °FClear.3 mph88%30.09 "Hg10 mi
10:20 PM55 °FSunny.5 mph88%30.07 "Hg10 mi
9:50 PM55 °FPassing clouds.5 mph88%30.07 "HgN/A
9:20 PM57 °FPassing clouds.7 mph88%30.07 "HgN/A
8:50 PM57 °FPassing clouds.8 mph88%30.07 "HgN/A
8:20 PM59 °FScattered clouds.6 mph82%30.04 "HgN/A
7:50 PM57 °FPartly sunny.7 mph82%30.04 "HgN/A
7:20 PM57 °FBroken clouds.15 mph88%30.04 "HgN/A
6:50 PM61 °FSprinkles. Partly sunny.10 mph83%30.04 "HgN/A
6:20 PM61 °FPartly sunny.10 mph88%30.01 "HgN/A
5:50 PM63 °FBroken clouds.7 mph83%30.01 "HgN/A
5:20 PM64 °FBroken clouds.12 mph83%30.01 "HgN/A
4:50 PM63 °FPartly sunny.9 mph83%30.01 "HgN/A
4:20 PM63 °FPartly sunny.12 mph88%30.01 "HgN/A
3:50 PM63 °FPartly sunny.10 mph88%29.98 "HgN/A
3:20 PM64 °FPartly sunny.13 mph94%29.98 "Hg5 mi
2:50 PM63 °FSprinkles. Partly sunny.9 mph94%29.98 "Hg5 mi
2:20 PM63 °FSprinkles. Partly sunny.10 mph88%29.98 "Hg2 mi
1:50 PM63 °FSprinkles. Partly sunny.14 mph94%29.95 "Hg5 mi
1:20 PM64 °FSprinkles. Partly sunny.12 mph88%29.95 "Hg4 mi
12:50 PM64 °FRain showers. Partly sunny.24 mph88%29.95 "Hg1 mi
12:20 PM68 °FSprinkles. Partly sunny.9 mph88%29.92 "Hg4 mi
11:50 AM68 °FSprinkles. Broken clouds.8 mph88%29.95 "Hg5 mi
11:20 AM68 °FBroken clouds.8 mph88%29.95 "Hg5 mi
10:50 AM68 °FBroken clouds.9 mph88%29.95 "Hg5 mi
10:20 AM68 °FSprinkles. Broken clouds.7 mph88%29.95 "Hg6 mi
9:50 AM68 °FBroken clouds.8 mph88%29.95 "Hg4 mi
9:20 AM68 °FFog.8 mph94%29.95 "Hg3 mi
8:50 AM66 °FFog.8 mph94%29.95 "Hg3 mi
8:20 AM66 °FFog.7 mph94%29.92 "Hg3 mi
Weather by CustomWeather, © 2016

See weather overviewHow to use our weather pages